Regional Weather Roundup
Issued by NWS

Home | Current Version | Previous Version | Graphics & Text | Print | Product List | Glossary On
Versions: 1 2 3 4 5 6 7 8 9 10 11 12 13 14 15 16 17 18 19 20 21 22 23 24 25 26 27 28 29 30 31 32 33 34 35 36 37 38 39 40 41 42 43 44 45 46 47 48 49 50
000
ASUS43 KMPX 232210
RWRMN
WEATHER ROUNDUP FOR MINNESOTA
NATIONAL WEATHER SERVICE TWIN CITIES/CHANHASSEN MN
500 PM CDT SUN JUL 23 2017


NOTE: "FAIR" INDICATES FEW OR NO CLOUDS BELOW 12,000 FEET WITH NO
SIGNIFICANT WEATHER AND/OR OBSTRUCTIONS TO VISIBILITY. N/A MEANS
CURRENT SKY AND/OR WEATHER CONDITIONS ARE NOT AVAILABLE.

MNZ060>063-068>070-232300-
   Twin Cities Metro

CITY           SKY/WX    TMP DP  RH WIND       PRES   REMARKS
TWIN CITIES    PTSUNNY   78  59  51 NE13G26   29.94S
ST PAUL        MOSUNNY   76  59  55 N16G23    29.95R
CRYSTAL        MOSUNNY   75  56  51 NE10G21   29.94S
BLAINE         MOSUNNY   77  59  53 N12G18    29.96R
LAKEVILLE      MOSUNNY   75  61  60 NW12G17   29.94S
EDEN PRAIRIE   PTSUNNY   77  61  57 N9        29.94S
SOUTH ST PAUL  MOSUNNY   77  57  50 N16       29.94S
LAKE ELMO      FAIR      73  59  60 N15       29.97R
$$
MNZ001>005-007-008-013>017-022>024-027-028-232300-
   Northwest Minnesota

CITY           SKY/WX    TMP DP  RH WIND       PRES   REMARKS
BEMIDJI        SUNNY     72  57  58 CALM      30.02S
HALLOCK        SUNNY     79  61  53 CALM      29.98F
ROSEAU         SUNNY     77  61  57 CALM      30.00S
WARROAD        SUNNY     75  63  64 NE6       30.01S
THIEF RVR FALL MOSUNNY   76  58  53 VRB3      30.01F
CROOKSTON      MOSUNNY   77  63  61 SW3       29.99F
FOSSTON        MOSUNNY   75  66  73 CALM      30.01F
DETROIT LAKES  MOSUNNY   73  59  60 CALM      30.02F
MOORHEAD       MOSUNNY   75  61  60 CALM      30.00S
PARK RAPIDS    PTSUNNY   75  57  53 N6        30.01S
MAHNOMEN       MOCLDY    74  60  61 NE7       30.00F
$$
MNZ006-009>011-018-025>026-232300-
   North Central Minnesota

CITY           SKY/WX    TMP DP  RH WIND       PRES   REMARKS
BAUDETTE       SUNNY     79  59  50 N7        29.99S
FLAG ISLAND    SUNNY     79  57  47 CALM      29.99S
INTL FALLS     MOSUNNY   78  52  40 CALM      29.99S
WASKISH        PTSUNNY   77  59  53 W7        29.99F
BIG FORK       MOSUNNY   75  55  50 NE3       30.00S
LONGVILLE      MOSUNNY   72  59  64 N5        30.01S
GRAND RAPIDS   CLOUDY    70  59  68 E6        30.03S
CRANE LAKE     SUNNY     73  52  46 CALM      30.00F
ORR            MOSUNNY   75  48  38 CALM      29.98S
COOK           MOSUNNY   73  54  49 N3        30.00S
WALKER         FAIR      70  57  61 SE5       30.03R
$$
MNZ012-019>021-037-232300-
   Northeast Minnesota

CITY           SKY/WX    TMP DP  RH WIND       PRES   REMARKS
DULUTH         PTSUNNY   64  60  87 CALM      30.02R
ELY            MOSUNNY   73  50  43 N5        30.00S
HIBBING        MOSUNNY   71  56  58 CALM      30.00F
EVELETH        SUNNY     73  59  62 CALM      30.01S
DULUTH HARBOR  CLOUDY    64  61  88 NE5       30.02S
TWO HARBORS    MOSUNNY   70  61  73 E7        30.00R
SILVER BAY     SUNNY     66  57  72 NE7       30.00R
GRAND MARAIS     N/A     62  54  74 E6        30.01R
G MARAIS ARPRT SUNNY     70  45  40 NE5       30.03R
$$
MNZ029>031-032-039>041-046>048-054>057-064-232300-
   West Central Minnesota

CITY           SKY/WX    TMP DP  RH WIND       PRES   REMARKS
FERGUS FALLS   PTSUNNY   73  61  64 N7        29.99F
WHEATON        MOSUNNY   73  57  56 N6        30.02F
MORRIS         MOSUNNY   77  57  50 N8        29.99F
ALEXANDRIA     SUNNY     75  60  59 N8        30.01F
ELBOW LAKE     PTSUNNY   72  62  69 NW7       30.01F
WADENA         PTSUNNY   73  61  64 N3        30.00S
GLENWOOD       MOSUNNY   75 N/A N/A N9          N/A
APPLETON       MOSUNNY   75  57  53 NW8       29.99S
BENSON         MOSUNNY   75  61  60 NE9       30.00F
ORTONVILLE     PTSUNNY   73  57  56 N9        30.01S
MADISON        MOSUNNY   77  61  57 N9        30.01S
WILLMAR        FAIR      77  61  57 N9        29.99F
$$
MNZ033>034-036-042>043-049>051-058-059-232300-
   Central Minnesota

CITY           SKY/WX    TMP DP  RH WIND       PRES   REMARKS
ST CLOUD       MOSUNNY   75  60  59 NE8       29.97S
SAUK CENTRE    MOCLDY    74  59  58 N10       29.99S
PAYNESVILLE    PTSUNNY   76  59  55 N13       29.99S
AITKIN         CLOUDY    70  57  64 NE6       30.00R
PINE RIVER     CLOUDY    72  59  64 NE8       30.04S
BRAINERD       MOSUNNY   72  60  66 NE9       30.00S
STAPLES        MOSUNNY   73  55  53 NE7       30.00S
LONG PRAIRIE   CLOUDY    73  61  64 N7        30.00F
LITTLE FALLS   CLOUDY    72  55  56 NE5       29.99F
LITCHFIELD     MOSUNNY   79  61  53 N10G17    29.97F
BUFFALO        PTSUNNY   75  60  58 N9        29.97S
MAPLE LAKE     CLOUDY    79  63  58 N8        29.98S
HUTCHINSON     MOSUNNY   77  61  58 N12       29.97F
$$
MNZ037-044-045-052-053-232300-
   East Central Minnesota

CITY           SKY/WX    TMP DP  RH WIND       PRES   REMARKS
PRINCETON      MOSUNNY   75  61  60 N12G17    29.98R
MORA           PTSUNNY   70  59  68 CALM      30.00S
CAMBRIDGE      MOSUNNY   75  59  57 N3        29.96S
RUSH CITY      PTSUNNY   72  59  64 NE8       29.99R
MOOSE LAKE     PTSUNNY   68  59  73 E6        30.00R
HINCKLEY       CLOUDY    70  61  73 NE8       30.00R
CLOQUET        CLOUDY    64  57  77 E8        30.02R
MCGREGOR       CLOUDY    70  59  68 NE5       30.01S
$$
MNZ071>073-080-081-089-090-097-098-232300-
   Southwest Minnesota

CITY           SKY/WX    TMP DP  RH WIND       PRES   REMARKS
MONTEVIDEO     PTSUNNY   81  61  50 NE9       29.99F
GRANITE FALLS  MOSUNNY   75  60  59 NW7       30.00F
CANBY          MOSUNNY   76  56  49 NE5       30.02S
MARSHALL       MOSUNNY   71  60  68 N7        30.01S
REDWOOD FALLS  PTSUNNY   75  59  57 N9        29.97F
OLIVIA         MOSUNNY   77  59  53 NW12      29.97F
PIPESTONE      MOSUNNY   77  57  50 N8        30.01S
WINDOM         SUNNY     75  59  57 NW13      30.00R
WORTHINGTON    MOSUNNY   75  59  57 N12       30.01
JACKSON        PTSUNNY   72  59  64 VRB7      30.00S
SLAYTON        HVY RAIN  73  59  62 N14       30.01F
$$
MNZ065>067-074>077-082>085-091>093-232300-
   South Central Minnesota

CITY           SKY/WX    TMP DP  RH WIND       PRES   REMARKS
MANKATO        MOSUNNY   75  60  59 N13       29.96S
NEW ULM        MOSUNNY   75  57  53 N7        29.96F
ST JAMES       PTSUNNY   73  61  64 NW7       29.98S
FAIRMONT       CLOUDY    74  61  63 N10G17    29.98R
GLENCOE        PTSUNNY   78  64  63 NW9       29.96S
FARIBAULT      SUNNY     75  61  60 N10       29.95S
OWATONNA       MOSUNNY   75  61  60 N10       29.94S
WASECA         MOSUNNY   73  61  64 N7        29.96F
ALBERT LEA     MOSUNNY   73  57  56 N10G16    29.95S
$$
MNZ078>079-086>088-094>096-232300-
   Southeast Minnesota

CITY           SKY/WX    TMP DP  RH WIND       PRES   REMARKS
ROCHESTER      PTSUNNY   74  61  63 N12       29.93F
RED WING       SUNNY     75  55  50 N8G17     29.92R
STANTON        PTSUNNY   76  60  58 N9        29.93S
DODGE CENTER   MOSUNNY   73  57  56 N9        29.94F
WINONA         MOSUNNY   73  59  60 N9        29.90S
AUSTIN         MOSUNNY   75  59  57 N12       29.93F
PRESTON        PTSUNNY   72  59  63 N13       29.93R
$$
ABBREVIATIONS USED IN REMARKS
   TC - TEMPERATURES IN CELSIUS
  WCI - WIND CHILL INDEX
   HX - HEAT INDEX
  VSB - VISIBILITY
$$




USA.gov is the U.S. government's official web portal to all federal, state and local government web resources and services.